Hourly Data Report for October 11, 2014

All times are specified in Local Standard Time (LST). Add 1 hour to adjust for Daylight Saving Time where and when it is observed.

KUGAARUK CLIMATE
NUNAVUT

68°32'15.060" N
89°47'47.020" W
15.80 m
2303094
71407
NBB

Download Data

Hourly Data (October 2014)
Hourly Data Report for October 11, 2014
Temp Definition
°C
Dew Point Temp Definition
°C
Rel Hum Definition
%
Wind Dir Definition
10's deg

Wind Spd Definition
km/h
Visibility Definition
km
Stn Press Definition
kPa
Hmdx Definition


Wind Chill Definition


Weather Definition


TIME
00:00 -7.0 -8.4 90 1 13   100.21   -13 LegendNANA
01:00 -7.1 -8.4 90 36 13   100.15   -13 LegendNANA
02:00 -6.7 -8.0 91 33 12   100.08   -12 LegendNANA
03:00 -6.6 -7.9 91 1 14   100.09   -12 LegendNANA
04:00 -6.2 -7.8 89 34 12   100.04   -11 LegendNANA
05:00 -5.9 -7.7 87 35 10   100.00   -10 LegendNANA
06:00 -5.9 -7.5 88 35 11   99.94   -11 LegendNANA
07:00 -5.6 -7.4 87 34 9   99.88   -10 LegendNANA
08:00 -5.1 -7.1 86 34 9   99.84   -9 LegendNANA
09:00 -4.8 -7.0 85 35 12   99.83   -10 LegendNANA
10:00 -4.6 -6.9 84 34 9   99.79   -8 LegendNANA
11:00 -4.2 -6.6 83 34 10   99.78   -8 LegendNANA
12:00 -4.1 -6.3 85 35 7   99.81   -7 LegendNANA
13:00 -4.1 -5.8 88 1 6   99.81   -7 LegendNANA
14:00 -4.0 -5.6 89 8 5   99.85   -6 LegendNANA
15:00 -4.3 -5.2 93 3 9   99.89   -8 LegendNANA
16:00 -4.1 -5.1 93 3 3   99.89   -5 LegendNANA
17:00 -3.9 -4.9 93 11 4   99.89   -6 LegendNANA
18:00 -3.5 -4.8 91 7 4   99.91   -5 LegendNANA
19:00 -3.5 -4.6 92 7 9   99.90   -7 LegendNANA
20:00 -3.3 -4.6 91 2 15   99.90   -8 LegendNANA
21:00 -3.2 -4.4 92 1 16   99.90   -9 LegendNANA
22:00 -3.4 -4.4 92 6 12   99.94   -8 LegendNANA
23:00 -3.5 -4.4 93 5 9   99.97   -7 LegendNANA

Notes on Data Quality.

Legend

  • E = Estimated
  • M = Missing
  • NA = Not Available
  • ‡ = Partner data that is not subject to review by the National Climate Archives
Date modified: